FW6834 Weather Reports


Display with metric or nautical units.
time (UTC)temp
F
wind
direction
speed
MPH
gust
MPH
rain 1hr
in
rain 24hr
in
rain mn
in
humidity
%
barometer
mb
20260902005602 96 198 6.0 8.0 0.00 0.00 0.00 31 1053.2
20260902004102 97 127 4.0 7.0 0.00 0.00 0.00 30 1053.2
20260902002602 98 184 2.0 8.0 0.00 0.00 0.00 30 1053.2
20260901235602 99 187 7.0 9.0 0.00 0.00 0.00 29 1053.2
20260901234102 99 201 6.0 10.0 0.00 0.00 0.00 27 1053.5
20260901232602 101 209 10.0 10.0 0.00 0.00 0.00 27 1053.5
20260901225602 101 192 7.0 9.0 0.00 0.00 0.00 27 1053.5
20260901224102 101 138 6.0 9.0 0.00 0.00 0.00 27 1053.5
20260901222602 102 139 5.0 9.0 0.00 0.00 0.00 26 1053.5
20260901221601 102 178 2.0 7.0 0.00 0.00 0.00 26 1053.5
20260901214602 101 138 5.0 15.0 0.00 0.00 0.00 26 1053.8
20260901213102 101 190 6.0 10.0 0.00 0.00 0.00 26 1054.2
20260901211602 101 169 8.0 8.0 0.00 0.00 0.00 27 1054.2
20260901203102 105 223 4.0 9.0 0.00 0.00 0.00 24 1054.9
20260901201602 104 184 10.0 10.0 0.00 0.00 0.00 24 1054.9
20260901194602 104 206 8.0 10.0 0.00 0.00 0.00 24 1055.2
20260901193602 102 229 7.0 9.0 0.00 0.00 0.00 25 1055.5
20260901192102 102 103 5.0 8.0 0.00 0.00 0.00 25 1055.5
20260901190603 103 166 7.0 10.0 0.00 0.00 0.00 24 1055.9
20260901185103 102 231 3.0 8.0 0.00 0.00 0.00 26 1055.9
20260901182102 101 109 4.0 7.0 0.00 0.00 0.00 27 1056.6
20260901180602 101 231 8.0 11.0 0.00 0.00 0.00 27 1056.6
20260901175102 103 170 6.0 9.0 0.00 0.00 0.00 26 1056.6
20260901173602 102 133 3.0 9.0 0.00 0.00 0.00 28 1056.9
20260901172102 102 233 5.0 8.0 0.00 0.00 0.00 27 1057.2
20260901170602 101 194 4.0 6.0 0.00 0.00 0.00 29 1057.2
20260901163602 99 210 4.0 9.0 0.00 0.00 0.00 31 1057.6
20260901162102 99 242 5.0 9.0 0.00 0.00 0.00 33 1057.6
20260901161101 98 243 3.0 9.0 0.00 0.00 0.00 32 1057.6
20260901154102 96 14 4.0 10.0 0.00 0.00 0.00 35 1057.2
20260901151102 94 186 5.0 7.0 0.00 0.00 0.00 37 1057.6
20260901145602 92 168 5.0 10.0 0.00 0.00 0.00 38 1057.6
20260901144102 91 178 4.0 10.0 0.00 0.00 0.00 41 1057.6
20260901135603 86 168 7.0 9.0 0.00 0.00 0.00 46 1057.6
20260901134602 86 152 6.0 8.0 0.00 0.00 0.00 48 1057.6
20260901125101 82 187 5.0 10.0 0.00 0.00 0.00 53 1057.2
20260901123602 81 185 6.0 10.0 0.00 0.00 0.00 54 1056.9
20260901122102 80 129 3.0 8.0 0.00 0.00 0.00 54 1056.9
20260901120603 80 185 7.0 9.0 0.00 0.00 0.00 53 1056.6
20260901115102 81 167 4.0 6.0 0.00 0.00 0.00 53 1056.6
20260901113602 81 202 7.0 9.0 0.00 0.00 0.00 52 1056.6
20260901112602 82 176 4.0 8.0 0.00 0.00 0.00 51 1056.6
20260901111102 82 181 9.0 13.0 0.00 0.00 0.00 51 1056.6
20260901105602 81 204 6.0 9.0 0.00 0.00 0.00 51 1056.2
20260901104102 80 181 5.0 7.0 0.00 0.00 0.00 51 1056.2
20260901102602 81 203 4.0 8.0 0.00 0.00 0.00 50 1056.2
20260901101103 81 158 4.0 8.0 0.00 0.00 0.00 49 1056.2
20260901095602 81 182 4.0 7.0 0.00 0.00 0.00 48 1056.2
20260901094102 82 192 4.0 7.0 0.00 0.00 0.00 48 1056.2
20260901092602 81 191 4.0 8.0 0.00 0.00 0.00 47 1056.2
20260901091102 81 184 4.0 8.0 0.00 0.00 0.00 47 1055.9
20260901085602 80 165 3.0 5.0 0.00 0.00 0.00 49 1055.9
20260901084602 80 160 3.0 4.0 0.00 0.00 0.00 49 1055.9
20260901081602 80 159 2.0 3.0 0.00 0.00 0.00 48 1055.9
20260901074602 80 161 0.0 3.0 0.00 0.00 0.00 49 1055.9
20260901073102 80 159 0.0 2.0 0.00 0.00 0.00 48 1055.5
20260901071602 81 155 0.0 0.0 0.00 0.00 0.00 47 1055.9
20260901063102 83 213 3.0 3.0 0.00 0.00 0.00 43 1055.5
20260901061902 84 145 0.0 0.0 0.00 0.00 0.00 42 1055.5
20260901054605 85 144 3.0 4.0 0.00 0.00 0.00 42 1055.5
20260901053102 85 180 2.0 4.0 0.00 0.00 0.00 41 1055.5
20260901051602 86 150 4.0 6.0 0.00 0.00 0.00 40 1055.5
20260901050107 86 208 4.0 6.0 0.00 0.00 0.00 40 1055.5
20260901045102 86 163 4.0 6.0 0.00 0.00 0.00 40 1055.5
20260901043602 87 172 2.0 6.0 0.00 0.00 0.00 39 1055.5
20260901042102 88 158 3.0 7.0 0.00 0.00 0.00 38 1055.5
20260901040602 88 171 2.0 7.0 0.00 0.00 0.00 37 1055.5
20260901035601 89 177 7.0 7.0 0.00 0.00 0.00 37 1055.5
20260901034102 89 144 8.0 8.0 0.00 0.00 0.00 37 1055.2
20260901031102 89 163 6.0 7.0 0.00 0.00 0.00 36 1055.2
20260901023101 90 171 5.0 7.0 0.00 0.00 0.00 35 1054.5
20260901021602 91 132 3.0 6.0 0.00 0.00 0.00 34 1054.5
20260901015102 92 154 3.0 8.0 0.00 0.00 0.00 32 1054.2
20260901013603 93 206 5.0 8.0 0.00 0.00 0.00 31 1053.8
20260901012602 93 122 4.0 8.0 0.00 0.00 0.00 30 1053.8
20260901011102 94 156 8.0 9.0 0.00 0.00 0.00 30 1053.8